Year,Month,Day,Hour,Minute,Value (Times are PST for temperature in C)
2006,07,22,00,00,22.60
2006,07,22,00,01,22.60
2006,07,22,00,02,22.50
2006,07,22,00,03,22.50
2006,07,22,00,04,22.50
2006,07,22,00,05,22.50
2006,07,22,00,06,22.50
2006,07,22,00,07,22.40
2006,07,22,00,08,22.40
2006,07,22,00,09,22.40
2006,07,22,00,10,22.30
2006,07,22,00,11,22.30
2006,07,22,00,12,22.30
2006,07,22,00,13,22.30
2006,07,22,00,14,22.30
2006,07,22,00,15,22.20
2006,07,22,00,16,22.20
2006,07,22,00,17,22.20
2006,07,22,00,18,22.20
2006,07,22,00,19,22.20
2006,07,22,00,20,22.20
2006,07,22,00,21,22.20
2006,07,22,00,22,22.20
2006,07,22,00,23,22.20
2006,07,22,00,24,22.20
2006,07,22,00,25,22.10
2006,07,22,00,26,22.10
2006,07,22,00,27,22.10
2006,07,22,00,28,22.10
2006,07,22,00,29,22.10
2006,07,22,00,30,22.10
2006,07,22,00,31,22.10
2006,07,22,00,32,22.10
2006,07,22,00,33,22.10
2006,07,22,00,34,22.10
2006,07,22,00,35,22.10
2006,07,22,00,36,22.10
2006,07,22,00,37,22.10
2006,07,22,00,38,22.10
2006,07,22,00,39,22.00
2006,07,22,00,40,22.00
2006,07,22,00,41,22.00
2006,07,22,00,42,22.00
2006,07,22,00,43,21.90
2006,07,22,00,44,21.90
2006,07,22,00,45,21.90
2006,07,22,00,46,21.80
2006,07,22,00,47,21.80
2006,07,22,00,48,21.80
2006,07,22,00,49,21.80
2006,07,22,00,50,21.80
2006,07,22,00,51,21.60
2006,07,22,00,52,21.50
2006,07,22,00,53,21.30
2006,07,22,00,54,21.20
2006,07,22,00,55,21.00
2006,07,22,00,56,20.70
2006,07,22,00,57,20.50
2006,07,22,00,58,20.20
2006,07,22,00,59,20.00
2006,07,22,01,00,19.70
2006,07,22,01,01,19.50
2006,07,22,01,02,19.30
2006,07,22,01,03,19.00
2006,07,22,01,04,18.80
2006,07,22,01,05,18.60
2006,07,22,01,06,18.60
2006,07,22,01,07,18.50
2006,07,22,01,08,18.30
2006,07,22,01,09,18.30
2006,07,22,01,10,18.20
2006,07,22,01,11,18.20
2006,07,22,01,12,18.20
2006,07,22,01,13,18.20
2006,07,22,01,14,18.10
2006,07,22,01,15,18.10
2006,07,22,01,16,18.10
2006,07,22,01,17,18.10
2006,07,22,01,18,18.10
2006,07,22,01,19,18.10
2006,07,22,01,20,18.10
2006,07,22,01,21,18.10
2006,07,22,01,22,18.10
2006,07,22,01,23,18.10
2006,07,22,01,24,18.10
2006,07,22,01,25,18.10
2006,07,22,01,26,18.10
2006,07,22,01,27,18.10
2006,07,22,01,28,18.10
2006,07,22,01,29,18.10
2006,07,22,01,30,18.10
2006,07,22,01,31,18.10
2006,07,22,01,32,18.10
2006,07,22,01,33,18.20
2006,07,22,01,34,18.20
2006,07,22,01,35,18.20
2006,07,22,01,36,18.20
2006,07,22,01,37,18.20
2006,07,22,01,38,18.20
2006,07,22,01,39,18.20
2006,07,22,01,40,18.30
2006,07,22,01,41,18.40
2006,07,22,01,42,18.50
2006,07,22,01,43,18.50
2006,07,22,01,44,18.50
2006,07,22,01,45,18.60
2006,07,22,01,46,18.60
2006,07,22,01,47,18.70
2006,07,22,01,48,18.70
2006,07,22,01,49,18.80
2006,07,22,01,50,18.80
2006,07,22,01,51,18.80
2006,07,22,01,52,18.90
2006,07,22,01,53,18.90
2006,07,22,01,54,18.90
2006,07,22,01,55,18.90
2006,07,22,01,56,18.90
2006,07,22,01,57,18.90
2006,07,22,01,58,18.90
2006,07,22,01,59,18.90
2006,07,22,02,00,19.00
2006,07,22,02,01,19.10
2006,07,22,02,02,19.10
2006,07,22,02,03,19.10
2006,07,22,02,04,19.10
2006,07,22,02,05,19.00
2006,07,22,02,06,18.90
2006,07,22,02,07,18.90
2006,07,22,02,08,18.90
2006,07,22,02,09,18.90
2006,07,22,02,10,18.90
2006,07,22,02,11,18.90
2006,07,22,02,12,18.90
2006,07,22,02,13,18.90
2006,07,22,02,14,19.00
2006,07,22,02,15,19.10
2006,07,22,02,16,19.10
2006,07,22,02,17,19.20
2006,07,22,02,18,19.20
2006,07,22,02,19,19.30
2006,07,22,02,20,19.30
2006,07,22,02,21,19.30
2006,07,22,02,22,19.30
2006,07,22,02,23,19.30
2006,07,22,02,24,19.40
2006,07,22,02,25,19.40
2006,07,22,02,26,19.40
2006,07,22,02,27,19.50
2006,07,22,02,28,19.50
2006,07,22,02,29,19.50
2006,07,22,02,30,19.50
2006,07,22,02,31,19.50
2006,07,22,02,32,19.50
2006,07,22,02,33,19.50
2006,07,22,02,34,19.50
2006,07,22,02,35,19.50
2006,07,22,02,36,19.50
2006,07,22,02,37,19.60
2006,07,22,02,38,19.60
2006,07,22,02,39,19.60
2006,07,22,02,40,19.60
2006,07,22,02,41,19.70
2006,07,22,02,42,19.70
2006,07,22,02,43,19.70
2006,07,22,02,44,19.80
2006,07,22,02,45,19.80
2006,07,22,02,46,19.80
2006,07,22,02,47,19.80
2006,07,22,02,48,19.80
2006,07,22,02,49,19.90
2006,07,22,02,50,19.90
2006,07,22,02,51,19.90
2006,07,22,02,52,19.90
2006,07,22,02,53,19.90
2006,07,22,02,54,19.90
2006,07,22,02,55,19.90
2006,07,22,02,56,19.90
2006,07,22,02,57,19.90
2006,07,22,02,58,19.90
2006,07,22,02,59,19.90
2006,07,22,03,00,19.90
2006,07,22,03,01,19.90
2006,07,22,03,02,19.90
2006,07,22,03,03,19.80
2006,07,22,03,04,19.80
2006,07,22,03,05,19.80
2006,07,22,03,06,19.80
2006,07,22,03,07,19.80
2006,07,22,03,08,19.80
2006,07,22,03,09,19.80
2006,07,22,03,10,19.80
2006,07,22,03,11,19.70
2006,07,22,03,12,19.70
2006,07,22,03,13,19.70
2006,07,22,03,14,19.70
2006,07,22,03,15,19.70
2006,07,22,03,16,19.60
2006,07,22,03,17,19.60
2006,07,22,03,18,19.60
2006,07,22,03,19,19.60
2006,07,22,03,20,19.50
2006,07,22,03,21,19.50
2006,07,22,03,22,19.50
2006,07,22,03,23,19.50
2006,07,22,03,24,19.50
2006,07,22,03,25,19.50
2006,07,22,03,26,19.60
2006,07,22,03,27,19.60
2006,07,22,03,28,19.60
2006,07,22,03,29,19.60
2006,07,22,03,30,19.70
2006,07,22,03,31,19.70
2006,07,22,03,32,19.70
2006,07,22,03,33,19.70
2006,07,22,03,34,19.70
2006,07,22,03,35,19.80
2006,07,22,03,36,19.80
2006,07,22,03,37,19.70
2006,07,22,03,38,19.70
2006,07,22,03,39,19.70
2006,07,22,03,40,19.70
2006,07,22,03,41,19.60
2006,07,22,03,42,19.60
2006,07,22,03,43,19.60
2006,07,22,03,44,19.60
2006,07,22,03,45,19.60
2006,07,22,03,46,19.60
2006,07,22,03,47,19.60
2006,07,22,03,48,19.60
2006,07,22,03,49,19.60
2006,07,22,03,50,19.60
2006,07,22,03,51,19.60
2006,07,22,03,52,19.60
2006,07,22,03,53,19.60
2006,07,22,03,54,19.60
2006,07,22,03,55,19.60
2006,07,22,03,56,19.50
2006,07,22,03,57,19.40
2006,07,22,03,58,19.30
2006,07,22,03,59,19.20
2006,07,22,04,00,19.20
2006,07,22,04,01,19.20
2006,07,22,04,02,19.20
2006,07,22,04,03,19.20
2006,07,22,04,04,19.10
2006,07,22,04,05,19.10
2006,07,22,04,06,19.00
2006,07,22,04,07,18.90
2006,07,22,04,08,18.90
2006,07,22,04,09,18.90
2006,07,22,04,10,18.80
2006,07,22,04,11,18.80
2006,07,22,04,12,18.70
2006,07,22,04,13,18.70
2006,07,22,04,14,18.70
2006,07,22,04,15,18.60
2006,07,22,04,16,18.50
2006,07,22,04,17,18.50
2006,07,22,04,18,18.50
2006,07,22,04,19,18.50
2006,07,22,04,20,18.50
2006,07,22,04,21,18.40
2006,07,22,04,22,18.30
2006,07,22,04,23,18.20
2006,07,22,04,24,18.20
2006,07,22,04,25,18.20
2006,07,22,04,26,18.20
2006,07,22,04,27,18.20
2006,07,22,04,28,18.10
2006,07,22,04,29,18.00
2006,07,22,04,30,17.90
2006,07,22,04,31,17.90
2006,07,22,04,32,17.90
2006,07,22,04,33,17.90
2006,07,22,04,34,17.90
2006,07,22,04,35,17.80
2006,07,22,04,36,17.80
2006,07,22,04,37,17.70
2006,07,22,04,38,17.70
2006,07,22,04,39,17.70
2006,07,22,04,40,17.70
2006,07,22,04,41,17.70
2006,07,22,04,42,17.60
2006,07,22,04,43,17.60
2006,07,22,04,44,17.60
2006,07,22,04,45,17.60
2006,07,22,04,46,17.60
2006,07,22,04,47,17.60
2006,07,22,04,48,17.50
2006,07,22,04,49,17.50
2006,07,22,04,50,17.50
2006,07,22,04,51,17.50
2006,07,22,04,52,17.60
2006,07,22,04,53,17.60
2006,07,22,04,54,17.60
2006,07,22,04,55,17.60
2006,07,22,04,56,17.60
2006,07,22,04,57,17.60
2006,07,22,04,58,17.60
2006,07,22,04,59,17.60
2006,07,22,05,00,17.70
2006,07,22,05,01,17.70
2006,07,22,05,02,17.70
2006,07,22,05,03,17.70
2006,07,22,05,04,17.70
2006,07,22,05,05,17.70
2006,07,22,05,06,17.70
2006,07,22,05,07,17.70
2006,07,22,05,08,17.70
2006,07,22,05,09,17.70
2006,07,22,05,10,17.70
2006,07,22,05,11,17.80
2006,07,22,05,12,17.80
2006,07,22,05,13,17.80
2006,07,22,05,14,17.80
2006,07,22,05,15,17.80
2006,07,22,05,16,17.80
2006,07,22,05,17,17.80
2006,07,22,05,18,17.80
2006,07,22,05,19,17.80
2006,07,22,05,20,17.80
2006,07,22,05,21,17.70
2006,07,22,05,22,17.70
2006,07,22,05,23,17.70
2006,07,22,05,24,17.60
2006,07,22,05,25,17.60
2006,07,22,05,26,17.50
2006,07,22,05,27,17.50
2006,07,22,05,28,17.40
2006,07,22,05,29,17.40
2006,07,22,05,30,17.40
2006,07,22,05,31,17.40
2006,07,22,05,32,17.40
2006,07,22,05,33,17.40
2006,07,22,05,34,17.40
2006,07,22,05,35,17.40
2006,07,22,05,36,17.40
2006,07,22,05,37,17.40
2006,07,22,05,38,17.40
2006,07,22,05,39,17.40
2006,07,22,05,40,17.40
2006,07,22,05,41,17.30
2006,07,22,05,42,17.30
2006,07,22,05,43,17.40
2006,07,22,05,44,17.40
2006,07,22,05,45,17.40
2006,07,22,05,46,17.40
2006,07,22,05,47,17.40
2006,07,22,05,48,17.40
2006,07,22,05,49,17.40
2006,07,22,05,50,17.40
2006,07,22,05,51,17.40
2006,07,22,05,52,17.40
2006,07,22,05,53,17.40
2006,07,22,05,54,17.40
2006,07,22,05,55,17.40
2006,07,22,05,56,17.50
2006,07,22,05,57,17.50
2006,07,22,05,58,17.50
2006,07,22,05,59,17.50
2006,07,22,06,00,17.50
2006,07,22,06,01,17.50
2006,07,22,06,02,17.50
2006,07,22,06,03,17.60
2006,07,22,06,04,17.60
2006,07,22,06,05,17.60
2006,07,22,06,06,17.70
2006,07,22,06,07,17.70
2006,07,22,06,08,17.70
2006,07,22,06,09,17.70
2006,07,22,06,10,17.70
2006,07,22,06,11,17.70
2006,07,22,06,12,17.70
2006,07,22,06,13,17.80
2006,07,22,06,14,17.80
2006,07,22,06,15,17.80
2006,07,22,06,16,17.80
2006,07,22,06,17,17.80
2006,07,22,06,18,17.90
2006,07,22,06,19,17.90
2006,07,22,06,20,17.90
2006,07,22,06,21,17.90
2006,07,22,06,22,17.90
2006,07,22,06,23,17.90
2006,07,22,06,24,17.90
2006,07,22,06,25,17.90
2006,07,22,06,26,17.90
2006,07,22,06,27,17.90
2006,07,22,06,28,18.00
2006,07,22,06,29,18.10
2006,07,22,06,30,18.10
2006,07,22,06,31,18.10
2006,07,22,06,32,18.10
2006,07,22,06,33,18.00
2006,07,22,06,34,17.90
2006,07,22,06,35,17.90
2006,07,22,06,36,17.90
2006,07,22,06,37,17.90
2006,07,22,06,38,17.90
2006,07,22,06,39,17.90
2006,07,22,06,40,17.90
2006,07,22,06,41,17.90
2006,07,22,06,42,17.90
2006,07,22,06,43,17.90
2006,07,22,06,44,18.00
2006,07,22,06,45,18.10
2006,07,22,06,46,18.10
2006,07,22,06,47,18.10
2006,07,22,06,48,18.20
2006,07,22,06,49,18.20
2006,07,22,06,50,18.20
2006,07,22,06,51,18.20
2006,07,22,06,52,18.20
2006,07,22,06,53,18.30
2006,07,22,06,54,18.30
2006,07,22,06,55,18.40
2006,07,22,06,56,18.40
2006,07,22,06,57,18.50
2006,07,22,06,58,18.50
2006,07,22,06,59,18.60
2006,07,22,07,00,18.60
2006,07,22,07,01,18.70
2006,07,22,07,02,18.80
2006,07,22,07,03,18.80
2006,07,22,07,04,18.80
2006,07,22,07,05,18.90
2006,07,22,07,06,18.90
2006,07,22,07,07,18.90
2006,07,22,07,08,19.00
2006,07,22,07,09,19.10
2006,07,22,07,10,19.10
2006,07,22,07,11,19.10
2006,07,22,07,12,19.20
2006,07,22,07,13,19.20
2006,07,22,07,14,19.20
2006,07,22,07,15,19.30
2006,07,22,07,16,19.30
2006,07,22,07,17,19.30
2006,07,22,07,18,19.40
2006,07,22,07,19,19.40
2006,07,22,07,20,19.40
2006,07,22,07,21,19.50
2006,07,22,07,22,19.50
2006,07,22,07,23,19.60
2006,07,22,07,24,19.60
2006,07,22,07,25,19.60
2006,07,22,07,26,19.70
2006,07,22,07,27,19.70
2006,07,22,07,28,19.70
2006,07,22,07,29,19.70
2006,07,22,07,30,19.70
2006,07,22,07,31,19.80
2006,07,22,07,32,19.80
2006,07,22,07,33,19.80
2006,07,22,07,34,19.80
2006,07,22,07,35,19.90
2006,07,22,07,36,19.90
2006,07,22,07,37,19.90
2006,07,22,07,38,19.90
2006,07,22,07,39,19.90
2006,07,22,07,40,19.90
2006,07,22,07,41,20.00
2006,07,22,07,42,20.20
2006,07,22,07,43,20.20
2006,07,22,07,44,20.20
2006,07,22,07,45,20.20
2006,07,22,07,46,20.30
2006,07,22,07,47,20.40
2006,07,22,07,48,20.40
2006,07,22,07,49,20.40
2006,07,22,07,50,20.50
2006,07,22,07,51,20.50
2006,07,22,07,52,20.60
2006,07,22,07,53,20.60
2006,07,22,07,54,20.70
2006,07,22,07,55,20.70
2006,07,22,07,56,20.70
2006,07,22,07,57,20.70
2006,07,22,07,58,20.70
2006,07,22,07,59,20.60
2006,07,22,08,00,20.50
2006,07,22,08,01,20.50
2006,07,22,08,02,20.30
2006,07,22,08,03,20.10
2006,07,22,08,04,19.90
2006,07,22,08,05,19.80
2006,07,22,08,06,19.70
2006,07,22,08,07,19.60
2006,07,22,08,08,19.50
2006,07,22,08,09,19.30
2006,07,22,08,10,19.20
2006,07,22,08,11,19.00
2006,07,22,08,12,18.80
2006,07,22,08,13,18.60
2006,07,22,08,14,18.50
2006,07,22,08,15,18.40
2006,07,22,08,16,18.20
2006,07,22,08,17,18.20
2006,07,22,08,18,18.10
2006,07,22,08,19,18.10
2006,07,22,08,20,18.10
2006,07,22,08,21,18.10
2006,07,22,08,22,18.10
2006,07,22,08,23,18.10
2006,07,22,08,24,18.10
2006,07,22,08,25,18.00
2006,07,22,08,26,17.90
2006,07,22,08,27,17.90
2006,07,22,08,28,17.90
2006,07,22,08,29,17.90
2006,07,22,08,30,17.90
2006,07,22,08,31,18.10
2006,07,22,08,32,18.10
2006,07,22,08,33,18.10
2006,07,22,08,34,18.20
2006,07,22,08,35,18.20
2006,07,22,08,36,18.20
2006,07,22,08,37,18.30
2006,07,22,08,38,18.40
2006,07,22,08,39,18.50
2006,07,22,08,40,18.50
2006,07,22,08,41,18.60
2006,07,22,08,42,18.80
2006,07,22,08,43,18.90
2006,07,22,08,44,19.00
2006,07,22,08,45,19.10
2006,07,22,08,46,19.10
2006,07,22,08,47,19.10
2006,07,22,08,48,19.00
2006,07,22,08,49,18.90
2006,07,22,08,50,18.80
2006,07,22,08,51,18.70
2006,07,22,08,52,18.60
2006,07,22,08,53,18.50
2006,07,22,08,54,18.30
2006,07,22,08,55,18.20
2006,07,22,08,56,18.00
2006,07,22,08,57,17.90
2006,07,22,08,58,17.90
2006,07,22,08,59,17.90
2006,07,22,09,00,17.80
2006,07,22,09,01,17.70
2006,07,22,09,02,17.60
2006,07,22,09,03,17.60
2006,07,22,09,04,17.60
2006,07,22,09,05,17.60
2006,07,22,09,06,17.50
2006,07,22,09,07,17.50
2006,07,22,09,08,17.60
2006,07,22,09,09,17.70
2006,07,22,09,10,17.70
2006,07,22,09,11,17.60
2006,07,22,09,12,17.60
2006,07,22,09,13,17.70
2006,07,22,09,14,17.80
2006,07,22,09,15,17.90
2006,07,22,09,16,17.90
2006,07,22,09,17,17.90
2006,07,22,09,18,17.80
2006,07,22,09,19,17.80
2006,07,22,09,20,17.70
2006,07,22,09,21,17.60
2006,07,22,09,22,17.60
2006,07,22,09,23,17.70
2006,07,22,09,24,17.80
2006,07,22,09,25,17.90
2006,07,22,09,26,18.00
2006,07,22,09,27,18.10
2006,07,22,09,28,18.20
2006,07,22,09,29,18.40
2006,07,22,09,30,18.40
2006,07,22,09,31,18.40
2006,07,22,09,32,18.50
2006,07,22,09,33,18.60
2006,07,22,09,34,18.70
2006,07,22,09,35,18.80
2006,07,22,09,36,18.90
2006,07,22,09,37,19.00
2006,07,22,09,38,19.10
2006,07,22,09,39,19.10
2006,07,22,09,40,19.30
2006,07,22,09,41,19.40
2006,07,22,09,42,19.50
2006,07,22,09,43,19.60
2006,07,22,09,44,19.70
2006,07,22,09,45,19.90
2006,07,22,09,46,20.00
2006,07,22,09,47,20.10
2006,07,22,09,48,20.20
2006,07,22,09,49,20.20
2006,07,22,09,50,20.30
2006,07,22,09,51,20.40
2006,07,22,09,52,20.50
2006,07,22,09,53,20.50
2006,07,22,09,54,20.60
2006,07,22,09,55,20.70
2006,07,22,09,56,20.80
2006,07,22,09,57,20.90
2006,07,22,09,58,21.00
2006,07,22,09,59,21.00
2006,07,22,10,00,21.10
2006,07,22,10,01,21.20
2006,07,22,10,02,21.30
2006,07,22,10,03,21.40
2006,07,22,10,04,21.50
2006,07,22,10,05,21.60
2006,07,22,10,06,21.70
2006,07,22,10,07,21.90
2006,07,22,10,08,22.00
2006,07,22,10,09,22.20
2006,07,22,10,10,22.40
2006,07,22,10,11,22.60
2006,07,22,10,12,22.50
2006,07,22,10,13,22.40
2006,07,22,10,14,22.20
2006,07,22,10,15,22.10
2006,07,22,10,16,22.00
2006,07,22,10,17,21.80
2006,07,22,10,18,21.70
2006,07,22,10,19,21.60
2006,07,22,10,20,21.60
2006,07,22,10,21,21.60
2006,07,22,10,22,21.70
2006,07,22,10,23,21.70
2006,07,22,10,24,21.90
2006,07,22,10,25,22.00
2006,07,22,10,26,22.00
2006,07,22,10,27,22.10
2006,07,22,10,28,22.10
2006,07,22,10,29,22.20
2006,07,22,10,30,22.20
2006,07,22,10,31,22.00
2006,07,22,10,32,21.60
2006,07,22,10,33,21.20
2006,07,22,10,34,20.90
2006,07,22,10,35,20.70
2006,07,22,10,36,20.60
2006,07,22,10,37,20.50
2006,07,22,10,38,20.50
2006,07,22,10,39,20.50
2006,07,22,10,40,20.40
2006,07,22,10,41,20.40
2006,07,22,10,42,20.40
2006,07,22,10,43,20.40
2006,07,22,10,44,20.40
2006,07,22,10,45,20.50
2006,07,22,10,46,20.50
2006,07,22,10,47,20.50
2006,07,22,10,48,20.60
2006,07,22,10,49,20.60
2006,07,22,10,50,20.70
2006,07,22,10,51,20.70
2006,07,22,10,52,20.70
2006,07,22,10,53,20.60
2006,07,22,10,54,20.30
2006,07,22,10,55,20.00
2006,07,22,10,56,19.70
2006,07,22,10,57,19.40
2006,07,22,10,58,19.20
2006,07,22,10,59,19.00
2006,07,22,11,00,18.90
2006,07,22,11,01,18.90
2006,07,22,11,02,18.80
2006,07,22,11,03,18.80
2006,07,22,11,04,18.80
2006,07,22,11,05,18.80
2006,07,22,11,06,18.80
2006,07,22,11,07,18.80
2006,07,22,11,08,18.70
2006,07,22,11,09,18.70
2006,07,22,11,10,18.80
2006,07,22,11,11,18.90
2006,07,22,11,12,19.10
2006,07,22,11,13,19.20
2006,07,22,11,14,19.30
2006,07,22,11,15,19.50
2006,07,22,11,16,19.70
2006,07,22,11,17,20.00
2006,07,22,11,18,20.20
2006,07,22,11,19,20.40
2006,07,22,11,20,20.50
2006,07,22,11,21,20.70
2006,07,22,11,22,20.90
2006,07,22,11,23,21.00
2006,07,22,11,24,21.20
2006,07,22,11,25,21.30
2006,07,22,11,26,21.40
2006,07,22,11,27,21.50
2006,07,22,11,28,21.60
2006,07,22,11,29,21.70
2006,07,22,11,30,21.90
2006,07,22,11,31,22.10
2006,07,22,11,32,22.30
2006,07,22,11,33,22.50
2006,07,22,11,34,22.60
2006,07,22,11,35,22.60
2006,07,22,11,36,22.60
2006,07,22,11,37,22.60
2006,07,22,11,38,22.70
2006,07,22,11,39,22.80
2006,07,22,11,40,22.80
2006,07,22,11,41,22.90
2006,07,22,11,42,23.00
2006,07,22,11,43,23.10
2006,07,22,11,44,23.10
2006,07,22,11,45,23.10
2006,07,22,11,46,23.10
2006,07,22,11,47,23.30
2006,07,22,11,48,23.50
2006,07,22,11,49,23.60
2006,07,22,11,50,23.70
2006,07,22,11,51,23.90
2006,07,22,11,52,24.00
2006,07,22,11,53,24.10
2006,07,22,11,54,24.20
2006,07,22,11,55,24.30
2006,07,22,11,56,24.30
2006,07,22,11,57,24.40
2006,07,22,11,58,24.40
2006,07,22,11,59,24.60
2006,07,22,12,00,24.70
2006,07,22,12,01,24.80
2006,07,22,12,02,25.00
2006,07,22,12,03,25.20
2006,07,22,12,04,25.30
2006,07,22,12,05,25.40
2006,07,22,12,06,25.50
2006,07,22,12,07,25.60
2006,07,22,12,08,25.70
2006,07,22,12,09,25.70
2006,07,22,12,10,25.80
2006,07,22,12,11,25.90
2006,07,22,12,12,25.90
2006,07,22,12,13,26.00
2006,07,22,12,14,26.00
2006,07,22,12,15,26.00
2006,07,22,12,16,26.00
2006,07,22,12,17,26.10
2006,07,22,12,18,26.10
2006,07,22,12,19,26.30
2006,07,22,12,20,26.30
2006,07,22,12,21,26.50
2006,07,22,12,22,26.60
2006,07,22,12,23,26.70
2006,07,22,12,24,26.80
2006,07,22,12,25,26.90
2006,07,22,12,26,27.10
2006,07,22,12,27,27.10
2006,07,22,12,28,27.20
2006,07,22,12,29,27.30
2006,07,22,12,30,27.40
2006,07,22,12,31,27.50
2006,07,22,12,32,27.80
2006,07,22,12,33,27.90
2006,07,22,12,34,28.00
2006,07,22,12,35,28.10
2006,07,22,12,36,28.00
2006,07,22,12,37,27.90
2006,07,22,12,38,27.80
2006,07,22,12,39,27.70
2006,07,22,12,40,27.70
2006,07,22,12,41,27.60
2006,07,22,12,42,27.60
2006,07,22,12,43,27.60
2006,07,22,12,44,27.60
2006,07,22,12,45,27.60
2006,07,22,12,46,27.50
2006,07,22,12,47,27.40
2006,07,22,12,48,27.50
2006,07,22,12,49,27.60
2006,07,22,12,50,27.70
2006,07,22,12,51,27.70
2006,07,22,12,52,27.80
2006,07,22,12,53,27.90
2006,07,22,12,54,28.00
2006,07,22,12,55,28.00
2006,07,22,12,56,28.00
2006,07,22,12,57,28.00
2006,07,22,12,58,28.00
2006,07,22,12,59,27.90
2006,07,22,13,00,27.90
2006,07,22,13,01,27.90
2006,07,22,13,02,28.00
2006,07,22,13,03,28.00
2006,07,22,13,04,28.10
2006,07,22,13,05,28.20
2006,07,22,13,06,28.20
2006,07,22,13,07,28.10
2006,07,22,13,08,28.00
2006,07,22,13,09,28.00
2006,07,22,13,10,27.90
2006,07,22,13,11,27.90
2006,07,22,13,12,28.00
2006,07,22,13,13,28.00
2006,07,22,13,14,28.00
2006,07,22,13,15,28.10
2006,07,22,13,16,28.10
2006,07,22,13,17,28.10
2006,07,22,13,18,28.10
2006,07,22,13,19,28.10
2006,07,22,13,20,28.20
2006,07,22,13,21,28.30
2006,07,22,13,22,28.50
2006,07,22,13,23,28.60
2006,07,22,13,24,28.60
2006,07,22,13,25,28.60
2006,07,22,13,26,28.60
2006,07,22,13,27,28.60
2006,07,22,13,28,28.60
2006,07,22,13,29,28.70
2006,07,22,13,30,28.70
2006,07,22,13,31,28.80
2006,07,22,13,32,28.80
2006,07,22,13,33,28.80
2006,07,22,13,34,28.70
2006,07,22,13,35,28.80
2006,07,22,13,36,28.90
2006,07,22,13,37,28.90
2006,07,22,13,38,29.00
2006,07,22,13,39,29.10
2006,07,22,13,40,29.20
2006,07,22,13,41,29.10
2006,07,22,13,42,29.10
2006,07,22,13,43,29.10
2006,07,22,13,44,29.20
2006,07,22,13,45,29.20
2006,07,22,13,46,29.00
2006,07,22,13,47,28.90
2006,07,22,13,48,28.90
2006,07,22,13,49,28.80
2006,07,22,13,50,28.70
2006,07,22,13,51,28.70
2006,07,22,13,52,28.60
2006,07,22,13,53,28.60
2006,07,22,13,54,28.60
2006,07,22,13,55,28.60
2006,07,22,13,56,28.70
2006,07,22,13,57,28.70
2006,07,22,13,58,28.70
2006,07,22,13,59,28.60
2006,07,22,14,00,28.60
2006,07,22,14,01,28.60
2006,07,22,14,02,28.60
2006,07,22,14,03,28.60
2006,07,22,14,04,28.70
2006,07,22,14,05,28.70
2006,07,22,14,06,28.70
2006,07,22,14,07,28.80
2006,07,22,14,08,28.80
2006,07,22,14,09,28.90
2006,07,22,14,10,28.90
2006,07,22,14,11,28.90
2006,07,22,14,12,28.90
2006,07,22,14,13,28.90
2006,07,22,14,14,28.90
2006,07,22,14,15,28.90
2006,07,22,14,16,28.90
2006,07,22,14,17,28.90
2006,07,22,14,18,28.90
2006,07,22,14,19,28.90
2006,07,22,14,20,29.00
2006,07,22,14,21,29.10
2006,07,22,14,22,29.10
2006,07,22,14,23,29.00
2006,07,22,14,24,28.90
2006,07,22,14,25,28.90
2006,07,22,14,26,28.90
2006,07,22,14,27,28.90
2006,07,22,14,28,28.80
2006,07,22,14,29,28.60
2006,07,22,14,30,28.40
2006,07,22,14,31,28.30
2006,07,22,14,32,28.10
2006,07,22,14,33,27.90
2006,07,22,14,34,27.80
2006,07,22,14,35,27.70
2006,07,22,14,36,27.60
2006,07,22,14,37,27.50
2006,07,22,14,38,27.30
2006,07,22,14,39,27.30
2006,07,22,14,40,27.20
2006,07,22,14,41,27.10
2006,07,22,14,42,27.10
2006,07,22,14,43,27.10
2006,07,22,14,44,27.00
2006,07,22,14,45,26.70
2006,07,22,14,46,26.50
2006,07,22,14,47,26.30
2006,07,22,14,48,26.30
2006,07,22,14,49,26.30
2006,07,22,14,50,26.20
2006,07,22,14,51,26.20
2006,07,22,14,52,26.20
2006,07,22,14,53,26.40
2006,07,22,14,54,26.50
2006,07,22,14,55,26.50
2006,07,22,14,56,26.40
2006,07,22,14,57,26.50
2006,07,22,14,58,26.60
2006,07,22,14,59,26.60
2006,07,22,15,00,26.60
2006,07,22,15,01,26.60
2006,07,22,15,02,26.60
2006,07,22,15,03,26.70
2006,07,22,15,04,26.70
2006,07,22,15,05,26.80
2006,07,22,15,06,26.80
2006,07,22,15,07,26.80
2006,07,22,15,08,26.80
2006,07,22,15,09,26.80
2006,07,22,15,10,26.90
2006,07,22,15,11,26.90
2006,07,22,15,12,26.90
2006,07,22,15,13,26.90
2006,07,22,15,14,26.90
2006,07,22,15,15,27.00
2006,07,22,15,16,27.20
2006,07,22,15,17,27.30
2006,07,22,15,18,27.30
2006,07,22,15,19,27.30
2006,07,22,15,20,27.30
2006,07,22,15,21,27.30
2006,07,22,15,22,27.20
2006,07,22,15,23,27.10
2006,07,22,15,24,27.10
2006,07,22,15,25,27.10
2006,07,22,15,26,27.10
2006,07,22,15,27,27.10
2006,07,22,15,28,26.00
2006,07,22,15,29,25.70
2006,07,22,15,30,25.40
2006,07,22,15,31,25.40
2006,07,22,15,32,25.20
2006,07,22,15,33,25.20
2006,07,22,15,34,25.30
2006,07,22,15,35,25.30
2006,07,22,15,36,25.30
2006,07,22,15,37,25.40
2006,07,22,15,38,25.50
2006,07,22,15,39,25.50
2006,07,22,15,40,25.70
2006,07,22,15,41,25.90
2006,07,22,15,42,26.10
2006,07,22,15,43,26.20
2006,07,22,15,44,26.20
2006,07,22,15,45,26.20
2006,07,22,15,46,26.10
2006,07,22,15,47,26.00
2006,07,22,15,48,25.90
2006,07,22,15,49,26.10
2006,07,22,15,50,26.20
2006,07,22,15,51,26.30
2006,07,22,15,52,26.30
2006,07,22,15,53,26.20
2006,07,22,15,54,26.00
2006,07,22,15,55,25.90
2006,07,22,15,56,25.90
2006,07,22,15,57,25.90
2006,07,22,15,58,26.00
2006,07,22,15,59,26.20
2006,07,22,16,00,26.30
2006,07,22,16,01,26.40
2006,07,22,16,02,26.50
2006,07,22,16,03,26.60
2006,07,22,16,04,26.60
2006,07,22,16,05,26.60
2006,07,22,16,06,26.50
2006,07,22,16,07,26.40
2006,07,22,16,08,26.40
2006,07,22,16,09,26.40
2006,07,22,16,10,26.50
2006,07,22,16,11,26.60
2006,07,22,16,12,26.60
2006,07,22,16,13,26.70
2006,07,22,16,14,26.80
2006,07,22,16,15,26.90
2006,07,22,16,16,27.00
2006,07,22,16,17,27.10
2006,07,22,16,18,27.20
2006,07,22,16,19,27.20
2006,07,22,16,20,27.20
2006,07,22,16,21,27.30
2006,07,22,16,22,27.30
2006,07,22,16,23,27.20
2006,07,22,16,24,27.10
2006,07,22,16,25,27.10
2006,07,22,16,26,27.00
2006,07,22,16,27,26.80
2006,07,22,16,28,26.80
2006,07,22,16,29,26.70
2006,07,22,16,30,26.70
2006,07,22,16,31,26.70
2006,07,22,16,32,26.80
2006,07,22,16,33,27.00
2006,07,22,16,34,27.10
2006,07,22,16,35,27.20
2006,07,22,16,36,27.30
2006,07,22,16,37,27.30
2006,07,22,16,38,27.10
2006,07,22,16,39,27.10
2006,07,22,16,40,27.10
2006,07,22,16,41,27.10
2006,07,22,16,42,27.30
2006,07,22,16,43,27.30
2006,07,22,16,44,27.30
2006,07,22,16,45,27.40
2006,07,22,16,46,27.40
2006,07,22,16,47,27.30
2006,07,22,16,48,27.30
2006,07,22,16,49,27.30
2006,07,22,16,50,27.30
2006,07,22,16,51,27.30
2006,07,22,16,52,27.30
2006,07,22,16,53,27.30
2006,07,22,16,54,27.30
2006,07,22,16,55,27.30
2006,07,22,16,56,27.30
2006,07,22,16,57,27.30
2006,07,22,16,58,27.30
2006,07,22,16,59,27.30
2006,07,22,17,00,27.40
2006,07,22,17,01,27.50
2006,07,22,17,02,27.40
2006,07,22,17,03,27.40
2006,07,22,17,04,27.40
2006,07,22,17,05,27.30
2006,07,22,17,06,27.30
2006,07,22,17,07,27.30
2006,07,22,17,08,27.30
2006,07,22,17,09,27.30
2006,07,22,17,10,27.30
2006,07,22,17,11,27.30
2006,07,22,17,12,27.50
2006,07,22,17,13,27.60
2006,07,22,17,14,27.60
2006,07,22,17,15,27.70
2006,07,22,17,16,27.90
2006,07,22,17,17,27.90
2006,07,22,17,18,28.10
2006,07,22,17,19,28.20